Terminal Aerodrome Forecast
Issued by NWS

Home | Current Version | Previous Version | Text Only | Print | Product List | Glossary On
Versions: 1 2 3 4 5 6 7 8 9 10 11 12 13 14
000
FTUS46 KSGX 301100
TAFTRM
TAF
KTRM 301120Z 3012/3112 VRB05KT P6SM VCSH OVC080
     FM301900 32005KT P6SM -SHRA BKN060 OVC080=

USA.gov is the U.S. government's official web portal to all federal, state and local government web resources and services.